1491674400.91,45770,11.25,73662.3,-5.29,-5.93,-5.93,0,*5F
1491674402.11,45771,11.19,73656.3,-5.29,-6.05,-5.97,0,*56
1491674403.31,45772,11.25,73658.5,-5.29,-5.97,-5.97,0,*5D
1491674404.54,45773,11.25,73658.3,-5.31,-5.97,-5.97,0,*55
1491674405.74,45774,11.19,73654.5,-5.29,-5.97,-5.97,0,*5B
1491674406.99,45775,11.25,73656.5,-5.31,-5.93,-5.97,0,*57
1491674408.19,45776,11.25,73658.8,-5.29,-5.97,-5.97,0,*59
1491674409.39,45777,11.19,73650.5,-5.29,-5.97,-5.97,0,*58
1491674410.59,45778,11.19,73652.5,-5.29,-5.97,-5.97,0,*57
1491674411.79,45779,11.19,73654.0,-5.29,-5.97,-5.97,0,*56
1491674413.02,45780,11.25,73656.0,-5.31,-5.97,-5.97,0,*59
1491674414.24,45781,11.25,73658.3,-5.31,-5.97,-5.97,0,*58
1491674415.47,45782,11.25,73658.5,-5.31,-5.97,-5.97,0,*5B
1491674416.75,45783,11.19,73656.8,-5.31,-5.93,-5.93,0,*5A
1491674417.95,45784,11.25,73658.5,-5.29,-5.97,-5.97,0,*54
1491674419.15,45785,11.25,73658.3,-5.29,-6.05,-5.97,0,*5D
1491674420.4,45786,11.19,73658.3,-5.31,-5.97,-5.93,0,*5B
1491674421.6,45787,11.25,73654.5,-5.29,-5.97,-5.97,0,*57
1491674422.83,45788,11.25,73648.0,-5.31,-5.97,-5.97,0,*51
1491674424.08,45789,11.25,73654.5,-5.31,-5.93,-5.97,0,*54
1491674425.33,45790,11.19,73644.0,-5.31,-5.97,-5.93,0,*5C
1491674426.53,45791,11.25,73644.8,-5.29,-5.97,-5.97,0,*50
1491674427.79,45792,11.19,73640.0,-5.29,-5.93,-5.93,0,*53
1491674429.02,45793,11.25,73640.0,-5.31,-5.97,-5.97,0,*5B
1491674430.25,45794,11.25,73636.0,-5.29,-5.93,-5.97,0,*51
1491674431.5,45795,11.25,73646.3,-5.29,-5.93,-5.93,0,*54
1491674432.73,45796,11.19,73644.8,-5.29,-6.05,-5.93,0,*5B
1491674433.96,45797,11.25,73648.3,-5.29,-5.93,-5.97,0,*52
1491674435.16,45798,11.19,73638.3,-5.29,-5.97,-5.97,0,*59
1491674436.42,45799,11.25,73634.0,-5.29,-5.93,-5.93,0,*58
1491674437.65,45800,11.19,73642.8,-5.29,-5.93,-5.97,0,*53
1491674438.85,45801,11.19,73634.0,-5.29,-5.97,-5.97,0,*56
1491674440.05,45802,11.19,73628.0,-5.29,-5.97,-5.97,0,*55
1491674441.28,45803,11.25,73636.8,-5.31,-5.97,-5.97,0,*5D
1491674442.51,45804,11.19,73628.3,-5.29,-5.97,-5.93,0,*57
1491674443.71,45805,11.19,73634.3,-5.29,-5.97,-6.05,0,*5A
1491674444.91,45806,11.19,73626.3,-5.29,-5.97,-5.97,0,*51
1491674446.11,45807,11.19,73624.8,-5.29,-5.97,-5.97,0,*50
1491674447.36,45808,11.19,73640.8,-5.31,-5.97,-5.93,0,*52
1491674448.62,45809,11.19,73636.5,-5.31,-5.93,-5.97,0,*53
1491674449.84,45810,11.19,73632.8,-5.31,-6.05,-5.97,0,*57
1491674451.1,45811,11.19,73634.3,-5.29,-5.93,-5.93,0,*57
1491674452.38,45812,11.19,73622.5,-5.31,-5.93,-5.93,0,*5D
1491674453.61,45813,11.19,73622.8,-5.29,-5.93,-5.97,0,*51
1491674454.81,45814,11.19,73618.3,-5.29,-5.97,-5.97,0,*52
1491674456.03,45815,11.19,73634.5,-5.31,-5.97,-6.05,0,*52
1491674457.26,45816,11.19,73632.3,-5.29,-5.93,-5.97,0,*54
1491674458.49,45817,11.19,73632.8,-5.31,-5.97,-5.97,0,*58
1491674459.74,45818,11.19,73636.0,-5.29,-5.93,-5.93,0,*5E
1491674461.0,45819,11.19,73636.5,-5.31,-5.97,-5.93,0,*52
1491674462.2,45820,11.19,73634.3,-5.29,-5.97,-5.97,0,*55
1491674463.43,45821,11.19,73626.0,-5.29,-5.93,-5.97,0,*50
1491674464.66,45822,11.19,73644.3,-5.29,-5.93,-5.97,0,*53
1491674465.86,45823,11.19,73634.5,-5.29,-6.05,-5.97,0,*5E
1491674467.08,45824,11.25,73622.0,-5.31,-5.97,-5.97,0,*58
1491674468.3,45825,11.19,73618.3,-5.31,-5.97,-5.97,0,*59
1491674469.53,45826,11.19,73626.3,-5.29,-5.97,-5.93,0,*57
1491674470.74,45827,11.19,73620.5,-5.29,-5.97,-5.97,0,*52
1491674471.94,45828,11.19,73604.5,-5.29,-5.97,-5.97,0,*5D
1491674473.19,45829,11.19,73628.0,-5.29,-5.93,-5.93,0,*5C
1491674474.39,45830,11.19,73622.0,-5.29,-5.97,-5.97,0,*54
1491674475.62,45831,11.19,73626.5,-5.31,-5.97,-5.97,0,*5C
1491674476.82,45832,11.19,73618.0,-5.29,-6.05,-5.97,0,*5E
1491674478.05,45833,11.19,73622.5,-5.29,-5.97,-5.93,0,*53
1491674479.28,45834,11.19,73626.3,-5.29,-5.97,-5.93,0,*54
1491674480.53,45835,11.19,73630.0,-5.31,-5.93,-5.97,0,*5C
1491674481.76,45836,11.19,73634.5,-5.29,-5.97,-5.93,0,*56
1491674482.96,45837,11.25,73634.0,-5.29,-5.97,-5.97,0,*53
1491674484.19,45838,11.19,73632.5,-5.29,-5.97,-5.93,0,*58
1491674485.39,45839,11.19,73626.0,-5.29,-5.97,-5.97,0,*5D
1491674486.59,45840,11.19,73620.0,-5.29,-5.97,-5.97,0,*53
1491674487.79,45841,11.19,73622.5,-5.29,-5.97,-5.97,0,*52
1491674489.02,45842,11.19,73628.5,-5.31,-5.97,-5.97,0,*58
1491674490.28,45843,11.19,73632.0,-5.29,-5.93,-5.93,0,*50
1491674491.51,45844,11.19,73636.0,-5.29,-5.97,-5.93,0,*53
1491674492.71,45845,11.19,73636.8,-5.29,-5.97,-5.97,0,*56
1491674493.91,45846,11.19,73638.5,-5.29,-5.97,-5.97,0,*55
1491674495.16,45847,11.19,73646.5,-5.31,-5.93,-5.97,0,*59
1491674496.39,45848,11.25,73644.5,-5.31,-5.97,-5.97,0,*52
1491674497.61,45849,11.19,73638.8,-5.31,-5.97,-5.97,0,*53
1491674498.83,45850,11.25,73638.8,-5.31,-6.05,-5.97,0,*53
1491674500.05,45851,11.25,73644.0,-5.31,-6.05,-5.97,0,*52
1491674501.28,45852,11.19,73638.8,-5.31,-5.97,-5.97,0,*59
1491674502.48,45853,11.25,73640.5,-5.29,-5.97,-5.97,0,*51
1491674503.74,45854,11.25,73642.3,-5.29,-5.93,-5.93,0,*56
1491674504.97,45855,11.19,73632.5,-5.29,-5.97,-5.93,0,*53
1491674506.19,45856,11.19,73630.8,-5.31,-5.97,-5.97,0,*5D
1491674507.42,45857,11.25,73620.5,-5.29,-5.93,-5.97,0,*51
1491674508.62,45858,11.25,73616.0,-5.29,-5.97,-5.97,0,*5A
1491674509.84,45859,11.25,73618.3,-5.31,-5.97,-5.97,0,*52
1491674511.07,45860,11.19,73616.5,-5.31,-5.97,-5.97,0,*58
1491674512.35,45861,11.19,73616.3,-5.31,-5.93,-5.93,0,*59
1491674513.6,45862,11.25,73626.5,-5.31,-5.93,-5.97,0,*5E
1491674514.86,45863,11.25,73616.3,-5.31,-5.97,-5.93,0,*5F
1491674516.08,45864,11.19,73622.8,-5.31,-5.97,-5.97,0,*5C
1491674517.31,45865,11.25,73626.5,-5.29,-5.93,-5.97,0,*50
1491674518.54,45866,11.19,73628.5,-5.29,-5.93,-5.97,0,*53
1491674519.77,45867,11.19,73636.3,-5.29,-5.97,-5.93,0,*52
1491674520.97,45868,11.25,73636.3,-5.29,-5.97,-5.97,0,*59
1491674522.2,45869,11.25,73640.0,-5.29,-5.97,-5.93,0,*5C
1491674523.45,45870,11.25,73650.5,-5.31,-5.97,-5.93,0,*5D
1491674524.71,45871,11.25,73618.8,-5.31,-5.93,-5.97,0,*5C
1491674525.94,45872,11.19,73616.3,-5.29,-5.93,-5.97,0,*56
1491674527.14,45873,11.25,73628.8,-5.29,-5.97,-5.97,0,*53
1491674528.36,45874,11.25,73626.8,-5.31,-5.97,-5.97,0,*5D
1491674529.62,45875,11.25,73626.3,-5.31,-5.93,-5.97,0,*58
1491674530.82,45876,11.19,73620.3,-5.29,-5.97,-5.97,0,*56
1491674532.02,45877,11.19,73632.0,-5.29,-5.97,-5.97,0,*57
1491674533.25,45878,11.19,73638.8,-5.29,-5.97,-5.93,0,*5C
1491674534.45,45879,11.19,73630.0,-5.29,-5.97,-5.97,0,*59
1491674535.68,45880,11.25,73642.8,-5.29,-5.97,-5.93,0,*5B
1491674536.93,45881,11.19,73648.5,-5.31,-5.93,-5.97,0,*53
1491674538.15,45882,11.25,73646.5,-5.31,-5.97,-6.05,0,*5C
1491674539.41,45883,11.25,73640.5,-5.31,-5.97,-5.93,0,*51
1491674540.64,45884,11.25,73634.8,-5.29,-5.97,-5.93,0,*5F
1491674541.89,45885,11.25,73634.3,-5.31,-5.97,-5.93,0,*57
1491674543.12,45886,11.25,73642.8,-5.31,-5.97,-5.97,0,*50
1491674544.34,45887,11.19,73642.8,-5.31,-5.97,-5.97,0,*51
1491674545.56,45888,11.25,73644.0,-5.31,-5.97,-5.97,0,*5E
1491674546.79,45889,11.25,73646.0,-5.29,-5.97,-5.93,0,*52
1491674548.02,45890,11.19,73650.8,-5.29,-5.97,-5.93,0,*5A
1491674549.25,45891,11.25,73650.0,-5.31,-5.97,-5.97,0,*56
1491674550.47,45892,11.25,73646.8,-5.31,-5.97,-5.97,0,*55
1491674551.7,45893,11.19,73646.0,-5.31,-5.97,-5.97,0,*54
1491674552.95,45894,11.25,73650.8,-5.31,-5.97,-5.93,0,*57
1491674554.15,45895,11.25,73642.8,-5.29,-5.97,-5.97,0,*5B
1491674555.35,45896,11.25,73628.8,-5.29,-5.97,-5.97,0,*58
1491674556.58,45897,11.25,73626.3,-5.29,-5.97,-5.93,0,*5D
1491674557.83,45898,11.19,73624.0,-5.31,-5.93,-5.97,0,*5B
1491674559.09,45899,11.19,73636.3,-5.29,-5.93,-5.93,0,*57
1491674560.38,45900,11.19,73630.3,-5.31,-5.93,-5.93,0,*5F
1491674561.61,45901,11.25,73628.0,-5.29,-5.93,-5.97,0,*53
1491674562.83,45902,11.19,73630.0,-5.31,-5.97,-5.97,0,*5D
1491674564.05,45903,11.25,73634.0,-5.31,-5.97,-5.97,0,*5C
1491674565.34,45904,11.25,73636.5,-5.31,-5.93,-5.93,0,*5B
1491674566.56,45905,11.25,73628.0,-5.31,-5.97,-5.97,0,*5A
1491674567.79,45906,11.19,73614.8,-5.29,-5.93,-5.97,0,*54
1491674569.01,45907,11.19,73606.8,-5.31,-5.97,-5.97,0,*58
1491674570.24,45908,11.25,73620.0,-5.31,-5.97,-5.97,0,*57
1491674571.44,45909,11.19,73624.0,-5.29,-5.97,-5.97,0,*5F
1491674572.66,45910,11.25,73626.8,-5.31,-5.97,-6.05,0,*56
1491674573.91,45911,11.19,73622.0,-5.31,-5.93,-5.97,0,*5B
1491674575.15,45912,11.25,73634.5,-5.29,-5.97,-5.93,0,*51
1491674576.37,45913,11.19,73642.5,-5.29,-5.93,-5.97,0,*50
1491674577.6,45914,11.25,73646.0,-5.29,-5.97,-5.93,0,*57
1491674578.83,45915,11.19,73638.3,-5.31,-5.97,-5.97,0,*5B
1491674580.09,45916,11.19,73640.8,-5.29,-5.93,-5.93,0,*51
1491674581.32,45917,11.19,73638.3,-5.29,-5.97,-5.93,0,*54
1491674582.57,45918,11.19,73634.8,-5.31,-5.93,-5.97,0,*52
1491674583.82,45919,11.19,73638.5,-5.31,-5.97,-5.93,0,*53
1491674585.05,45920,11.25,73642.0,-5.29,-5.97,-5.93,0,*50
1491674586.28,45921,11.19,73642.8,-5.31,-5.97,-5.97,0,*5C
1491674587.54,45922,11.19,73642.0,-5.29,-5.93,-5.93,0,*56
1491674588.76,45923,11.19,73646.3,-5.31,-5.97,-5.97,0,*5E
1491674589.99,45924,11.19,73648.3,-5.31,-5.97,-5.97,0,*59
1491674591.21,45925,11.19,73648.8,-5.31,-5.97,-5.97,0,*58
1491674592.41,45926,11.19,73632.3,-5.29,-5.97,-5.97,0,*52
1491674593.61,45927,11.25,73632.3,-5.29,-5.97,-5.97,0,*53
1491674594.86,45928,11.19,73634.0,-5.31,-5.93,-5.97,0,*51
1491674596.09,45929,11.19,73634.8,-5.29,-5.97,-5.93,0,*59
1491674597.32,45930,11.19,73634.0,-5.31,-5.97,-5.97,0,*5C
1491674598.52,45931,11.19,73632.3,-5.29,-5.97,-5.97,0,*54
1491674599.77,45932,11.19,73624.8,-5.31,-5.93,-5.97,0,*5A
1491674601.0,45933,11.19,73634.8,-5.29,-5.97,-5.93,0,*52
1491674602.23,45934,11.19,73624.0,-5.29,-5.97,-5.93,0,*55
1491674603.48,45935,11.19,73616.8,-5.31,-5.93,-5.97,0,*5D
1491674604.71,45936,11.19,73622.3,-5.31,-5.97,-5.97,0,*5A
1491674605.99,45937,11.25,73628.8,-5.31,-5.93,-5.93,0,*5B
1491674607.24,45938,11.19,73626.0,-5.31,-5.93,-5.97,0,*50
1491674608.47,45939,11.19,73628.0,-5.29,-5.93,-5.97,0,*58
1491674609.7,45940,11.19,73626.5,-5.29,-5.97,-5.93,0,*56
1491674610.96,45941,11.19,73628.3,-5.29,-5.93,-5.93,0,*53
1491674612.18,45942,11.19,73616.5,-5.31,-6.05,-5.97,0,*51
1491674613.41,45943,11.19,73620.0,-5.31,-5.97,-5.97,0,*58
1491674614.63,45944,11.19,73616.5,-5.31,-5.97,-5.97,0,*5F
1491674615.89,45945,11.25,73618.3,-5.31,-5.93,-5.97,0,*5A
1491674617.11,45946,11.25,73616.0,-5.31,-5.97,-5.97,0,*5D
1491674618.33,45947,11.19,73612.8,-5.31,-6.05,-5.97,0,*54
1491674619.58,45948,11.19,73610.5,-5.31,-5.93,-5.97,0,*57
1491674620.78,45949,11.25,73608.3,-5.29,-5.97,-5.97,0,*5B
1491674622.04,45950,11.19,73594.5,-5.29,-5.93,-5.93,0,*53
1491674623.27,45951,11.25,73614.5,-5.31,-5.97,-5.97,0,*5B
1491674624.47,45952,11.19,73608.0,-5.29,-5.97,-5.97,0,*51
1491674625.68,45953,11.19,73618.0,-5.33,-6.01,-6.01,0,*5B
1491674626.94,45954,11.19,73628.5,-5.31,-5.93,-5.97,0,*5A
1491674628.16,45955,11.19,73628.0,-5.31,-5.97,-5.97,0,*5F
1491674629.39,45956,11.19,73616.0,-5.31,-5.97,-5.97,0,*5C
1491674630.64,45957,11.19,73630.8,-5.31,-5.93,-5.97,0,*59
1491674631.84,45958,11.25,73634.3,-5.29,-5.97,-5.97,0,*5B
1491674633.09,45959,11.19,73620.3,-5.31,-5.93,-5.97,0,*57
1491674634.34,45960,11.25,73622.0,-5.31,-5.93,-5.97,0,*5D
1491674635.6,45961,11.19,73620.8,-5.31,-5.97,-5.93,0,*5C
1491674636.8,45962,11.19,73632.3,-5.29,-5.97,-5.97,0,*52
1491674638.05,45963,11.19,73636.5,-5.31,-5.97,-5.93,0,*5E
1491674639.3,45964,11.19,73628.8,-5.31,-5.93,-6.05,0,*51
1491674640.5,45965,11.25,73636.8,-5.29,-6.05,-5.97,0,*5D
1491674641.7,45966,11.19,73632.0,-5.29,-5.97,-6.05,0,*5E
1491674642.93,45967,11.19,73622.5,-5.31,-5.97,-5.97,0,*5E
1491674644.15,45968,11.25,73614.8,-5.29,-6.05,-5.93,0,*54
1491674645.35,45969,11.25,73632.0,-5.29,-6.05,-5.97,0,*51
1491674646.58,45970,11.19,73632.8,-5.29,-5.97,-5.93,0,*55
1491674647.81,45971,11.19,73612.5,-5.31,-5.97,-5.97,0,*59
1491674649.03,45972,11.25,73612.0,-5.31,-6.05,-5.97,0,*52
1491674650.25,45973,11.19,73626.8,-5.31,-5.97,-5.97,0,*5B
1491674651.53,45974,11.25,73634.5,-5.31,-5.93,-5.93,0,*5C
1491674652.78,45975,11.25,73636.5,-5.31,-6.05,-5.93,0,*51
1491674654.01,45976,11.19,73634.0,-5.31,-5.97,-5.97,0,*5E
1491674655.23,45977,11.25,73634.3,-5.31,-5.97,-5.97,0,*5F
1491674656.43,45978,11.25,73648.0,-5.29,-5.97,-5.97,0,*59
1491674657.68,45979,11.25,73636.0,-5.31,-5.97,-5.93,0,*55
1491674658.91,45980,11.25,73636.5,-5.31,-5.97,-6.05,0,*5F
1491674660.19,45981,11.25,73636.8,-5.31,-5.93,-5.93,0,*56
1491674661.41,45982,11.25,73612.5,-5.31,-5.97,-6.05,0,*5D
1491674662.67,45983,11.19,73624.5,-5.31,-5.97,-5.93,0,*50
1491674663.92,45984,11.25,73630.3,-5.31,-5.93,-5.97,0,*57
1491674665.14,45985,11.25,73628.8,-5.31,-5.97,-5.97,0,*52
1491674666.37,45986,11.25,73626.8,-5.29,-5.93,-5.97,0,*5C
1491674667.6,45987,11.25,73634.3,-5.31,-5.97,-5.97,0,*50
1491674668.82,45988,11.25,73632.5,-5.31,-5.97,-5.97,0,*5F
1491674670.08,45989,11.25,73632.0,-5.31,-5.97,-5.93,0,*5A
1491674671.3,45990,11.25,73648.8,-5.31,-6.05,-5.97,0,*5E
1491674672.52,45991,11.25,73646.3,-5.31,-6.05,-5.97,0,*5F
1491674673.77,45992,11.19,73642.3,-5.31,-5.97,-5.93,0,*50
1491674675.02,45993,11.19,73650.8,-5.31,-6.05,-5.93,0,*59
1491674676.25,45994,11.19,73644.5,-5.31,-5.97,-5.97,0,*52
1491674677.47,45995,11.19,73646.8,-5.31,-5.97,-5.97,0,*53
1491674678.69,45996,11.25,73650.0,-5.31,-6.05,-5.97,0,*58
1491674679.92,45997,11.25,73654.0,-5.29,-5.93,-5.97,0,*5C
1491674681.12,45998,11.19,73648.8,-5.29,-5.97,-5.97,0,*57
1491674682.4,45999,11.25,73652.3,-5.31,-5.93,-5.93,0,*5F
1491674683.66,46000,11.25,73648.3,-5.31,-5.97,-5.93,0,*51
1491674684.91,46001,11.25,73652.3,-5.31,-5.97,-5.93,0,*50
1491674686.16,46002,11.25,73652.8,-5.31,-5.93,-5.97,0,*53
1491674687.42,46003,11.25,73650.5,-5.31,-5.97,-5.93,0,*52
1491674688.62,46004,11.19,73646.0,-5.29,-5.97,-5.97,0,*58
1491674689.87,46005,11.19,73650.3,-5.31,-5.97,-5.93,0,*54
1491674691.09,46006,11.25,73656.0,-5.31,-5.97,-5.97,0,*53
1491674692.32,46007,11.25,73654.8,-5.31,-5.97,-5.97,0,*52
1491674693.54,46008,11.25,73650.0,-5.31,-6.05,-5.97,0,*55
1491674694.79,46009,11.19,73652.0,-5.31,-5.93,-5.97,0,*58
1491674696.02,46010,11.25,73652.8,-5.31,-5.97,-5.97,0,*54
1491674697.27,46011,11.19,73654.0,-5.31,-5.93,-5.97,0,*51
1491674698.52,46012,11.25,73650.5,-5.31,-5.93,-5.97,0,*52
1491674699.75,46013,11.19,73650.3,-5.29,-5.93,-5.97,0,*5A
1491674700.98,46014,11.19,73648.0,-5.31,-5.97,-5.97,0,*50
1491674702.23,46015,11.19,73644.3,-5.31,-5.93,-5.97,0,*55
1491674703.45,46016,11.19,73638.3,-5.33,-6.01,-5.97,0,*5C
1491674704.7,46017,11.19,73640.8,-5.31,-5.97,-5.93,0,*57
1491674705.92,46018,11.19,73648.3,-5.31,-5.97,-5.97,0,*5C
1491674707.18,46019,11.19,73640.0,-5.31,-5.97,-5.93,0,*59
1491674708.4,46020,11.25,73642.0,-5.31,-5.97,-5.97,0,*57
1491674709.63,46021,11.19,73642.8,-5.29,-5.97,-5.93,0,*5B
1491674710.86,46022,11.19,73638.8,-5.31,-5.97,-5.97,0,*55
1491674712.14,46023,11.19,73632.8,-5.31,-5.93,-5.93,0,*54
1491674713.37,46024,11.19,73624.8,-5.29,-5.97,-5.93,0,*5E
1491674714.6,46025,11.19,73630.0,-5.29,-5.93,-5.97,0,*5F
1491674715.85,46026,11.19,73632.0,-5.31,-6.05,-5.93,0,*5D
1491674717.05,46027,11.19,73636.3,-5.29,-5.97,-5.97,0,*59
1491674718.26,46028,11.25,73640.8,-5.33,-6.01,-5.97,0,*51
1491674719.48,46029,11.19,73640.5,-5.33,-6.01,-6.01,0,*5C
1491674720.68,46030,11.19,73638.5,-5.29,-5.97,-5.97,0,*5F
1491674721.94,46031,11.19,73638.8,-5.31,-5.97,-5.93,0,*53
1491674723.22,46032,11.25,73642.8,-5.31,-5.93,-5.93,0,*54
1491674724.44,46033,11.19,73642.3,-5.31,-5.97,-5.97,0,*55
1491674725.7,46034,11.19,73638.0,-5.31,-5.97,-5.93,0,*56
1491674726.95,46035,11.19,73632.5,-5.31,-6.05,-5.93,0,*5F
1491674728.2,46036,11.19,73634.0,-5.31,-5.97,-5.93,0,*54
1491674729.42,46037,11.19,73638.0,-5.33,-6.01,-6.01,0,*53
1491674730.64,46038,11.19,73638.8,-5.31,-5.97,-5.97,0,*5E
1491674731.86,46039,11.19,73632.0,-5.31,-5.97,-5.97,0,*5F
1491674733.09,46040,11.19,73628.8,-5.31,-5.97,-5.97,0,*51
1491674734.34,46041,11.19,73620.5,-5.31,-5.97,-5.93,0,*54
1491674735.6,46042,11.25,73630.3,-5.31,-5.97,-5.93,0,*57
1491674736.82,46043,11.19,73628.8,-5.31,-5.97,-5.97,0,*52
1491674738.04,46044,11.19,73632.3,-5.31,-5.97,-5.97,0,*55
1491674739.27,46045,11.19,73638.8,-5.31,-5.97,-5.97,0,*54
1491674740.49,46046,11.19,73630.0,-5.31,-5.97,-5.97,0,*57
1491674741.74,46047,11.25,73628.8,-5.31,-5.93,-5.97,0,*52
1491674743.0,46048,11.19,73640.5,-5.31,-5.97,-5.93,0,*5D
1491674744.25,46049,11.25,73646.8,-5.31,-5.97,-5.93,0,*5C
1491674745.48,46050,11.19,73654.5,-5.31,-5.97,-5.97,0,*50
1491674746.73,46051,11.19,73646.8,-5.31,-5.97,-5.93,0,*55
1491674747.95,46052,11.19,73646.3,-5.31,-5.97,-5.97,0,*52
1491674749.21,46053,11.19,73650.5,-5.31,-5.93,-5.97,0,*57
1491674750.46,46054,11.19,73646.3,-5.31,-5.93,-5.97,0,*50
1491674751.68,46055,11.19,73642.5,-5.31,-5.97,-5.97,0,*55
1491674752.91,46056,11.25,73642.8,-5.31,-5.97,-5.97,0,*56
1491674754.16,46057,11.19,73638.0,-5.31,-5.97,-5.93,0,*53
1491674755.39,46058,11.19,73640.0,-5.31,-5.97,-5.97,0,*58
1491674756.61,46059,11.19,73640.3,-5.31,-5.97,-5.97,0,*59
1491674757.86,46060,11.19,73642.5,-5.31,-5.93,-5.97,0,*57
1491674759.12,46061,11.19,73642.3,-5.31,-5.97,-5.93,0,*56
1491674760.37,46062,11.19,73652.8,-5.31,-5.97,-5.93,0,*55
1491674761.59,46063,11.19,73644.0,-5.31,-5.97,-5.97,0,*50
1491674762.82,46064,11.19,73650.3,-5.31,-5.97,-5.97,0,*57
1491674764.04,46065,11.19,73638.5,-5.31,-5.97,-5.97,0,*56
1491674765.27,46066,11.19,73644.3,-5.31,-5.97,-5.97,0,*55
1491674766.49,46067,11.19,73646.0,-5.31,-6.05,-5.97,0,*5C
1491674767.71,46068,11.19,73626.0,-5.31,-6.05,-5.97,0,*53
1491674768.93,46069,11.19,73630.5,-5.31,-5.97,-5.97,0,*5A
1491674770.16,46070,11.19,73636.5,-5.31,-5.97,-5.97,0,*52
1491674771.38,46071,11.19,73632.5,-5.31,-5.97,-5.97,0,*53
1491674772.63,46072,11.19,73642.3,-5.31,-5.97,-5.93,0,*54
1491674773.89,46073,11.19,73632.8,-5.31,-5.97,-5.93,0,*55
1491674775.11,46074,11.19,73642.8,-5.31,-5.97,-5.97,0,*56
1491674776.36,46075,11.19,73640.0,-5.31,-5.93,-5.97,0,*53
1491674777.59,46076,11.19,73650.8,-5.31,-5.97,-5.97,0,*54
1491674778.84,46077,11.19,73650.3,-5.31,-5.93,-5.97,0,*51
1491674780.07,46078,11.19,73640.8,-5.31,-5.97,-5.97,0,*5A
1491674781.32,46079,11.19,73644.8,-5.31,-5.97,-5.93,0,*5F
1491674782.54,46080,11.19,73642.3,-5.31,-5.97,-6.05,0,*55
1491674783.76,46081,11.19,73636.0,-5.33,-6.01,-6.13,0,*5D
1491674784.98,46082,11.19,73638.5,-5.31,-5.97,-5.97,0,*5F
1491674786.2,46083,11.19,73636.3,-5.33,-6.01,-5.97,0,*50
1491674787.42,46084,11.19,73636.3,-5.31,-5.97,-5.97,0,*59
1491674788.65,46085,11.19,73626.5,-5.31,-5.97,-5.97,0,*58
1491674789.86,46086,11.19,73634.8,-5.33,-6.01,-5.97,0,*55
1491674791.08,46087,11.19,73638.0,-5.33,-6.01,-6.01,0,*58
1491674792.3,46088,11.19,73638.8,-5.33,-6.01,-6.01,0,*57
1491674793.52,46089,11.19,73640.0,-5.33,-5.97,-6.01,0,*5A
1491674794.77,46090,11.19,73636.5,-5.31,-5.97,-5.93,0,*58
1491674796.02,46091,11.19,73646.0,-5.31,-5.97,-5.93,0,*59
1491674797.24,46092,11.19,73644.8,-5.31,-6.05,-6.05,0,*5E
1491674798.47,46093,11.19,73640.3,-5.31,-5.97,-6.05,0,*57
1491674799.72,46094,11.19,73646.5,-5.31,-5.97,-5.93,0,*5C
1491674800.94,46095,11.19,73646.3,-5.33,-5.97,-6.01,0,*57
1491674802.19,46096,11.19,73650.0,-5.31,-5.93,-5.97,0,*5E
1491674803.41,46097,11.19,73646.3,-5.31,-5.97,-5.97,0,*5B
1491674804.64,46098,11.25,73648.5,-5.31,-5.97,-6.05,0,*5C
1491674805.86,46099,11.19,73644.0,-5.31,-6.05,-5.97,0,*5D
1491674807.08,46100,11.19,73644.0,-5.33,-6.09,-6.01,0,*5E
1491674808.3,46101,11.19,73644.3,-5.33,-6.09,-6.01,0,*5F
1491674809.51,46102,11.19,73646.0,-5.33,-5.97,-6.01,0,*58
1491674810.73,46103,11.19,73654.0,-5.33,-6.01,-5.97,0,*59
1491674811.95,46104,11.19,73650.8,-5.33,-5.97,-6.01,0,*5E
1491674813.16,46105,11.25,73650.8,-5.33,-6.01,-6.01,0,*53
1491674814.38,46106,11.19,73640.8,-5.33,-6.01,-5.97,0,*5C
1491674815.6,46107,11.19,73648.5,-5.33,-6.01,-6.01,0,*51
1491674816.79,46108,11.19,73644.3,-5.35,-6.01,-6.01,0,*58
1491674818.01,46109,11.19,73640.8,-5.33,-6.01,-6.01,0,*5F
1491674819.23,46110,11.19,73652.5,-5.31,-5.97,-5.97,0,*55
1491674820.45,46111,11.19,73648.3,-5.33,-6.01,-6.01,0,*56
1491674821.67,46112,11.19,73648.5,-5.33,-6.01,-5.97,0,*59
1491674822.88,46113,11.19,73650.8,-5.33,-6.01,-6.01,0,*54
1491674824.1,46114,11.19,73664.0,-5.33,-5.97,-5.97,0,*53
1491674825.32,46115,11.19,73668.5,-5.31,-5.97,-5.97,0,*50
1491674826.54,46116,11.19,73670.5,-5.33,-5.97,-6.01,0,*5D
1491674827.76,46117,11.19,73678.8,-5.33,-6.01,-6.01,0,*50
1491674828.97,46118,11.19,73670.0,-5.33,-6.01,-6.01,0,*5F
1491674830.23,46119,11.25,73672.3,-5.31,-5.93,-5.97,0,*58
1491674831.45,46120,11.19,73678.8,-5.31,-5.97,-5.97,0,*56
1491674832.67,46121,11.19,73670.3,-5.31,-5.97,-5.97,0,*57
1491674833.89,46122,11.19,73662.3,-5.33,-6.01,-6.01,0,*56
1491674835.08,46123,11.19,73662.3,-5.35,-6.01,-6.01,0,*51
1491674836.3,46124,11.19,73666.5,-5.33,-5.97,-6.01,0,*5C
1491674837.52,46125,11.19,73664.5,-5.33,-6.01,-6.01,0,*51
1491674838.74,46126,11.19,73664.8,-5.33,-6.01,-5.97,0,*5E
1491674839.95,46127,11.19,73664.5,-5.33,-6.01,-6.01,0,*53
1491674841.17,46128,11.19,73666.0,-5.33,-6.01,-5.97,0,*50
1491674842.39,46129,11.19,73664.0,-5.33,-6.09,-5.97,0,*59
1491674843.6,46130,11.19,73658.0,-5.33,-5.97,-6.01,0,*59
1491674844.86,46131,11.19,73658.8,-5.31,-5.93,-5.97,0,*52
1491674846.11,46132,11.19,73660.3,-5.31,-5.97,-5.93,0,*51
1491674847.36,46133,11.19,73658.5,-5.31,-5.97,-5.93,0,*50
1491674848.59,46134,11.19,73664.3,-5.31,-5.97,-5.97,0,*53
1491674849.87,46135,11.19,73660.0,-5.31,-5.93,-5.93,0,*52
1491674851.09,46136,11.19,73656.3,-5.33,-5.97,-6.01,0,*5F
1491674852.3,46137,11.19,73656.3,-5.33,-6.01,-5.97,0,*5E
1491674853.52,46138,11.19,73656.5,-5.33,-6.01,-5.97,0,*51
1491674854.74,46139,11.19,73662.3,-5.33,-6.01,-6.01,0,*5C
1491674855.95,46140,11.19,73664.8,-5.33,-6.01,-5.97,0,*5E
1491674857.21,46141,11.19,73662.0,-5.31,-5.97,-5.93,0,*55
1491674858.43,46142,11.19,73658.3,-5.31,-5.97,-5.97,0,*52
1491674859.65,46143,11.19,73650.3,-5.33,-6.01,-6.01,0,*51
1491674860.87,46144,11.19,73646.8,-5.33,-5.97,-6.01,0,*5A
1491674862.08,46145,11.19,73644.0,-5.33,-6.01,-6.01,0,*57
1491674863.3,46146,11.19,73644.0,-5.33,-6.01,-6.01,0,*54
1491674864.55,46147,11.19,73650.8,-5.31,-5.93,-5.97,0,*53
1491674865.78,46148,11.19,73652.0,-5.31,-5.97,-5.97,0,*58
1491674867.0,46149,11.19,73656.0,-5.31,-6.05,-5.97,0,*51
1491674868.21,46150,11.19,73660.5,-5.33,-6.01,-6.01,0,*53
1491674869.44,46151,11.19,73666.8,-5.31,-5.97,-5.97,0,*50
1491674870.66,46152,11.19,73664.0,-5.33,-6.01,-6.01,0,*51
1491674871.87,46153,11.25,73660.8,-5.33,-6.01,-6.01,0,*50
1491674873.09,46154,11.25,73658.0,-5.33,-6.01,-6.01,0,*57
1491674874.31,46155,11.19,73642.5,-5.31,-5.97,-5.97,0,*54
1491674875.53,46156,11.19,73640.3,-5.33,-6.01,-6.09,0,*5D
1491674876.75,46157,11.19,73640.3,-5.33,-6.01,-6.09,0,*5C
1491674877.96,46158,11.19,73642.8,-5.33,-5.97,-6.01,0,*57
1491674879.18,46159,11.19,73638.3,-5.33,-6.01,-6.01,0,*5A
1491674880.4,46160,11.19,73630.8,-5.33,-6.01,-6.01,0,*50
1491674881.61,46161,11.19,73630.8,-5.33,-5.97,-6.01,0,*5D
1491674882.83,46162,11.19,73632.0,-5.33,-6.09,-6.01,0,*5A
1491674884.06,46163,11.19,73654.8,-5.31,-5.97,-6.09,0,*55
1491674885.28,46164,11.19,73646.5,-5.33,-6.09,-6.09,0,*54
1491674886.49,46165,11.19,73642.5,-5.33,-6.01,-6.01,0,*55
1491674887.71,46166,11.25,73638.5,-5.33,-6.01,-6.01,0,*56
1491674888.93,46167,11.19,73644.3,-5.33,-6.01,-6.01,0,*57
1491674890.15,46168,11.19,73644.5,-5.33,-6.09,-6.01,0,*50
1491674891.37,46169,11.19,73650.8,-5.31,-6.05,-6.05,0,*5B
1491674892.59,46170,11.19,73658.0,-5.33,-6.09,-6.09,0,*51
1491674893.8,46171,11.25,73656.3,-5.33,-6.01,-6.01,0,*50
1491674895.02,46172,11.19,73660.5,-5.33,-6.01,-6.01,0,*53
1491674896.24,46173,11.19,73656.5,-5.33,-6.01,-5.97,0,*5E
1491674897.46,46174,11.19,73648.3,-5.33,-6.09,-6.01,0,*5D
1491674898.67,46175,11.19,73628.0,-5.33,-6.13,-6.13,0,*54
1491674899.89,46176,11.19,73636.0,-5.33,-6.09,-6.09,0,*57
1491674901.09,46177,11.19,73636.0,-5.35,-6.09,-6.01,0,*58
1491674902.28,46178,11.19,73642.3,-5.35,-6.09,-6.01,0,*57
1491674903.48,46179,11.25,73644.8,-5.35,-6.09,-6.01,0,*56
1491674904.7,46180,11.25,73636.3,-5.31,-6.05,-5.97,0,*54
1491674905.89,46181,11.19,73638.5,-5.35,-6.01,-6.01,0,*59
1491674907.09,46182,11.19,73630.8,-5.35,-5.97,-6.01,0,*56
1491674908.3,46183,11.19,73630.3,-5.33,-6.09,-6.01,0,*55